Theta_e
305 305 305 306 308 308 307 305 305 305 305 305 305 305 305 307 308 312 320 314 317 317 318 318 317 316 315 313 316 317 316 319 320 323 326 338 346 347 343 352 355 354 350 345 338
305 305 305 305 307 308 308 306 305 305 305 305 305 305 307 308 311 317 316 315 319 316 318 315 312 314 310 312 313 314 313 316 319 322 323 326 346 352 351 348 354 353 349 341 338
305 305 305 305 306 308 308 306 306 305 305 305 305 307 308 308 321 323 321 321 319 319 318 314 314 313 312 312 312 313 313 315 318 320 322 320 342 347 354 356 350 352 346 338 337
305 305 305 305 306 308 308 307 306 305 305 305 307 308 308 315 324 322 316 317 317 316 314 313 313 312 314 313 313 313 315 316 317 319 318 319 343 342 348 348 354 350 342 339 338
306 306 305 305 306 308 308 307 306 305 305 307 308 308 311 323 325 322 317 316 315 315 315 313 313 313 312 314 314 314 314 316 316 316 316 318 326 342 339 349 345 345 345 342 341
307 307 307 306 306 308 308 307 306 305 306 308 308 308 322 324 320 322 325 328 322 320 317 315 314 314 314 313 314 315 315 316 316 315 316 318 331 350 348 344 343 347 347 344 342
308 308 308 307 307 307 308 307 305 305 307 308 308 312 320 319 320 321 319 321 322 320 317 319 319 316 315 315 315 315 315 315 316 316 316 318 318 336 345 345 345 344 346 345 341
307 308 308 308 307 307 308 306 305 306 308 308 308 316 322 322 322 320 319 320 320 319 320 319 318 316 317 315 315 314 315 314 315 317 318 318 318 347 343 341 346 349 350 347 342
307 307 309 309 308 308 308 306 306 310 309 308 314 318 326 325 320 318 318 318 320 319 319 319 317 316 316 315 312 314 314 318 317 317 317 319 319 341 347 341 342 342 349 347 340
308 309 309 308 308 308 308 307 314 317 318 317 319 323 325 325 323 322 321 319 319 321 319 318 314 313 311 312 314 315 315 317 321 321 321 320 321 328 354 355 349 345 348 346 342
309 309 309 308 308 308 308 314 321 324 322 330 329 328 326 324 323 322 322 320 319 321 321 318 315 312 312 312 314 316 317 318 321 321 320 319 322 328 330 351 354 351 350 348 343
308 308 308 308 308 308 307 318 324 321 321 324 327 327 325 322 323 323 322 320 320 321 321 321 317 318 318 317 316 316 316 318 320 321 320 318 320 329 331 348 352 351 350 348 346
308 308 308 309 308 308 311 322 324 322 322 326 327 324 322 322 324 323 322 320 320 320 321 320 321 322 322 321 320 318 319 319 319 320 319 319 318 320 327 344 349 350 349 347 347
309 309 309 308 318 319 321 325 320 323 326 330 327 325 323 323 326 326 325 324 322 321 322 322 322 323 323 321 320 318 319 320 319 318 317 319 317 317 322 343 345 350 348 348 341
308 308 308 307 311 316 322 320 321 325 343 330 326 326 326 326 326 327 326 326 325 330 330 330 326 328 330 329 330 330 329 319 319 318 322 321 318 316 318 319 333 347 349 347 344
311 309 308 317 319 322 323 321 323 332 342 330 324 324 323 326 325 325 324 324 329 329 328 326 326 326 324 318 326 328 329 329 322 321 321 322 323 321 331 332 331 328 333 342 343
314 315 315 314 321 323 325 324 335 340 330 324 322 322 323 324 325 321 319 325 326 327 325 324 324 316 315 314 316 322 328 333 335 332 324 330 333 334 331 330 331 329 330 338 333
317 317 318 320 324 325 326 330 338 325 322 320 319 320 324 318 319 318 317 320 318 318 321 320 320 315 314 314 313 316 329 331 342 343 334 330 337 336 328 326 325 326 325 336 339
320 322 324 328 327 325 329 336 325 323 317 317 319 320 319 317 316 315 317 321 317 314 315 316 315 314 314 314 313 314 315 322 330 326 332 330 330 334 327 326 326 325 324 324 336
320 323 324 326 321 325 329 328 323 317 315 317 318 319 317 316 315 314 316 316 316 314 313 314 315 315 314 313 313 312 313 313 326 330 334 330 337 335 328 325 325 324 323 324 325
322 329 321 319 323 327 329 324 320 316 316 317 318 316 318 316 315 315 316 314 314 314 313 315 317 316 314 314 314 315 315 317 318 329 334 338 337 327 325 323 324 324 324 324 324
329 334 319 319 325 327 320 319 313 316 316 316 318 316 317 317 317 317 316 315 314 315 318 317 314 316 315 317 317 317 320 321 325 321 323 329 325 322 321 320 320 321 323 324 325
329 330 320 321 326 325 322 316 315 316 316 316 318 316 317 317 319 318 317 316 314 318 316 316 316 321 320 317 316 319 320 320 320 320 321 325 325 322 320 319 321 324 326 325 324
329 330 325 323 321 323 322 318 317 316 317 316 317 317 317 317 317 320 319 317 315 317 320 318 320 323 321 319 317 320 319 318 319 323 325 324 324 320 319 317 316 321 322 321 317
331 326 320 322 319 321 319 318 318 318 316 318 318 318 316 317 318 319 316 316 316 318 319 321 321 320 318 318 318 318 315 315 320 322 323 321 322 320 318 317 315 318 320 319 317
322 323 319 322 320 320 316 321 317 317 315 319 317 316 315 318 319 317 315 315 317 319 319 319 318 319 319 318 319 318 316 315 316 318 317 317 320 315 316 314 315 319 320 317 316
321 319 321 320 320 321 321 318 316 315 316 317 315 315 317 318 315 314 313 314 316 320 319 318 318 319 319 318 319 323 317 317 315 315 316 317 317 316 315 314 314 313 317 316 314
Wind_Speed
18 19 19 20 20 20 19 17 16 16 16 16 16 17 18 22 25 18 8 18 9 9 14 19 18 17 14 6 7 6 5 11 13 19 13 7 7 21 24 22 13 16 18 28 38
19 19 20 20 21 21 20 17 17 16 16 15 15 16 18 20 22 16 25 19 15 12 10 10 11 11 5 6 5 4 4 10 14 18 13 10 10 19 4 6 3 16 20 39 38
19 19 19 19 20 21 20 18 17 15 15 14 14 15 16 16 6 7 5 8 22 26 17 14 20 7 8 8 8 8 11 11 19 19 12 12 4 1 20 5 9 7 26 26 28
19 18 19 19 20 21 20 17 16 15 14 13 14 15 15 5 2 4 3 6 8 9 8 5 6 6 5 8 10 8 13 15 18 18 10 13 4 4 3 9 20 9 18 16 19
18 18 18 18 19 20 20 16 15 14 13 13 12 13 5 3 9 7 5 6 6 4 7 6 7 8 8 7 8 7 10 14 13 11 9 10 4 6 10 18 33 13 5 12 12
18 18 18 18 19 20 20 17 15 14 13 12 10 9 2 6 8 6 5 5 7 8 7 12 9 11 9 9 6 9 9 11 10 11 8 7 5 9 5 13 19 15 8 11 9
18 18 18 19 19 20 20 18 15 14 13 10 7 5 5 14 8 6 5 14 10 12 7 16 22 10 9 8 10 10 10 11 8 9 10 7 10 7 18 18 17 18 12 12 11
17 18 18 19 19 20 20 17 15 15 12 8 6 0 7 14 9 13 12 14 9 10 15 15 13 6 4 8 10 9 6 6 9 10 12 5 8 14 24 19 15 12 13 17 16
16 17 18 18 18 19 19 18 16 15 10 6 3 4 9 12 8 12 13 13 12 9 9 9 4 3 7 6 7 6 7 10 10 10 9 8 9 12 25 20 18 21 23 20 12
15 16 16 16 16 19 19 18 16 10 3 3 9 5 9 5 8 4 7 11 7 4 6 6 2 2 4 0 5 8 7 9 11 8 13 13 10 10 27 23 25 24 23 19 16
13 13 14 13 15 18 18 7 1 1 6 9 7 6 12 10 9 8 10 8 7 5 6 7 3 8 14 13 10 14 13 13 15 13 5 15 17 12 15 20 22 21 20 18 13
12 12 12 12 13 15 14 4 7 9 8 13 19 18 6 3 5 8 10 2 6 8 9 5 10 16 15 14 15 16 16 16 9 10 5 10 8 11 8 18 27 24 18 14 16
11 10 10 11 12 14 10 14 13 13 3 10 12 5 3 4 6 10 10 8 8 9 11 8 13 10 13 8 8 8 6 6 8 13 7 7 8 6 5 12 19 18 12 12 18
10 10 9 9 8 6 9 14 6 10 3 5 0 4 6 7 5 6 3 3 4 9 10 7 10 11 12 8 11 5 10 10 10 7 9 3 9 8 6 9 15 18 24 23 21
9 9 8 6 12 6 12 12 11 1 4 15 3 2 5 4 4 2 14 3 8 5 6 12 15 14 17 20 20 14 26 10 11 8 3 9 3 8 8 9 9 16 24 27 26
9 8 7 5 10 13 15 15 8 1 2 6 9 11 13 6 10 10 10 9 7 7 10 10 15 5 10 20 17 10 25 12 6 1 4 4 7 6 8 12 25 26 18 20 29
10 11 12 11 5 10 18 6 3 1 3 9 14 10 9 8 5 7 8 11 8 6 8 8 5 17 25 25 20 15 14 6 6 5 3 20 9 5 15 17 18 25 30 16 31
16 21 23 26 20 13 10 2 3 12 10 12 10 16 5 17 11 12 10 7 17 13 4 6 7 20 19 12 8 15 6 2 5 6 11 17 6 3 14 18 25 28 31 42 34
20 14 15 21 16 11 0 2 3 6 9 10 12 7 9 14 8 8 5 12 7 11 4 5 4 14 12 14 6 8 5 8 14 15 4 7 9 5 23 24 25 27 29 31 21
14 7 11 13 12 7 2 4 5 7 7 8 7 8 7 10 8 9 4 7 5 11 7 6 6 7 16 11 11 8 9 7 1 5 4 3 4 5 14 16 18 20 20 24 25
5 3 2 8 9 2 3 4 8 10 7 6 6 5 7 8 8 8 7 7 8 7 8 7 4 9 9 5 13 10 7 6 2 2 2 3 2 3 4 8 10 9 13 17 20
4 3 2 7 3 1 3 4 4 6 8 4 4 5 6 7 5 6 8 7 9 8 5 4 2 3 10 11 13 11 10 11 4 8 3 4 2 4 3 3 6 8 7 9 11
3 4 6 8 3 4 3 7 3 5 5 5 4 4 3 4 3 7 5 6 9 5 3 2 3 4 9 7 14 6 12 10 5 4 3 3 2 5 8 12 9 8 13 9 18
3 3 4 4 4 4 5 1 5 3 4 3 2 4 4 4 7 5 7 11 10 6 7 5 2 3 4 9 11 4 12 11 4 2 3 1 5 9 7 8 13 11 12 11 14
2 1 2 3 5 6 5 5 6 4 2 5 3 3 5 3 5 6 7 7 9 4 3 3 2 6 9 14 9 7 7 7 6 5 1 7 4 6 7 13 13 8 8 13 12
4 4 5 3 1 5 4 4 2 3 1 1 1 6 6 4 4 4 5 4 4 5 6 2 2 4 7 11 9 3 6 7 7 6 5 10 3 7 7 10 11 9 6 11 13
11 11 1 4 3 3 2 2 2 4 5 5 1 3 6 5 5 5 5 6 6 4 5 1 2 2 6 6 6 3 3 3 3 2 2 3 3 2 5 6 5 7 3 4 6
Wind_Direction
328 328 327 332 333 330 326 320 317 316 316 319 319 314 315 312 313 306 239 251 259 255 279 280 279 255 235 255 268 284 258 257 254 265 287 231 147 208 190 212 193 189 151 153 156
323 323 325 330 332 331 325 321 321 322 320 317 316 316 316 324 320 262 278 254 247 228 278 274 267 215 207 224 241 189 246 246 260 271 278 301 104 152 128 274 203 131 147 149 156
319 320 322 327 327 329 327 324 323 317 314 314 314 317 320 334 296 246 308 231 242 245 256 264 287 298 227 212 231 248 252 264 269 277 298 317 337 91 128 202 25 160 142 150 158
317 321 321 324 327 328 327 318 315 312 313 315 319 319 322 334 305 338 133 148 184 224 222 255 278 292 273 241 232 220 250 262 266 271 293 287 111 300 193 118 52 267 137 152 163
317 318 319 322 322 326 324 318 312 311 314 317 318 324 341 238 248 233 190 197 220 189 207 227 260 270 266 269 268 227 245 257 265 274 263 283 287 122 97 101 100 316 206 172 173
314 315 316 319 321 323 323 317 311 311 311 311 316 330 324 264 253 168 145 224 204 182 216 228 236 246 257 262 265 260 260 255 277 288 297 269 156 97 131 121 138 144 253 186 204
308 312 314 317 319 321 323 316 313 308 304 305 312 347 265 248 265 284 185 243 209 192 227 247 253 268 271 304 275 281 299 293 286 284 273 289 311 144 144 158 158 164 187 213 196
305 311 314 315 317 318 317 314 310 300 298 294 300 265 252 259 295 288 228 255 230 223 240 275 329 331 327 315 329 308 302 255 260 267 283 272 261 141 161 154 161 167 204 210 194
303 309 313 311 313 315 313 312 304 296 290 273 303 207 265 308 239 228 224 247 220 213 264 276 2 300 336 327 311 296 265 256 269 236 249 233 243 119 169 171 163 191 187 216 181
308 307 305 307 312 311 313 312 297 295 279 237 272 286 267 246 204 12 233 227 279 227 224 213 213 212 305 140 253 270 299 308 292 287 249 261 224 213 172 170 174 194 198 189 162
303 303 304 307 308 308 321 323 283 239 226 211 207 239 287 312 134 226 210 197 267 273 256 240 176 227 229 210 225 243 266 269 271 281 338 303 221 205 214 171 169 181 169 185 158
308 306 305 305 304 302 305 252 296 287 303 258 246 236 280 293 273 212 142 177 229 240 252 276 218 243 237 241 217 233 245 258 273 295 305 299 299 252 205 173 176 182 180 142 147
311 306 303 303 304 291 248 258 311 14 292 291 237 181 149 196 261 163 171 186 243 267 261 250 265 272 256 271 274 282 273 289 284 296 296 304 302 285 250 185 177 181 153 144 145
311 306 302 306 307 302 263 294 345 351 315 245 114 148 187 219 253 79 299 240 253 254 284 284 310 317 323 304 316 263 262 274 279 274 271 192 281 297 300 190 187 157 171 176 171
319 312 307 297 305 301 305 340 342 66 12 326 126 218 270 282 15 61 359 276 275 3 21 311 347 4 24 354 355 0 346 264 249 266 293 315 348 290 317 305 230 180 184 183 187
327 313 304 313 287 273 297 322 304 91 244 306 24 350 344 9 30 357 7 7 43 11 333 357 16 36 11 355 5 349 2 340 314 189 286 263 319 288 27 3 14 6 335 209 185
331 325 311 277 244 312 321 321 9 237 117 0 350 337 307 293 56 35 1 36 32 12 2 337 42 8 23 352 349 8 30 350 347 348 259 9 342 75 335 14 9 7 352 324 201
310 307 301 279 270 275 301 357 264 14 27 354 333 300 70 38 22 21 5 63 43 37 2 359 335 13 349 348 317 332 88 313 315 338 299 312 254 316 356 5 12 16 5 2 184
318 323 298 296 290 233 15 309 45 10 356 346 317 10 5 23 14 8 27 70 64 56 50 347 313 324 338 351 353 312 308 226 195 255 318 267 278 327 348 1 8 12 12 12 5
334 299 268 283 281 217 31 293 102 57 345 340 22 22 4 17 9 352 10 41 44 51 53 325 315 349 342 319 340 347 304 336 117 197 250 278 66 334 350 339 359 11 16 9 7
324 304 4 325 320 57 232 79 93 80 11 28 12 350 23 18 332 341 64 88 71 28 23 56 47 311 334 340 322 340 9 354 334 95 299 293 253 247 326 345 356 4 22 23 6
299 312 11 345 38 205 74 37 314 51 16 7 60 339 55 350 335 313 15 32 56 44 44 44 253 326 279 303 4 22 27 30 46 321 276 187 304 35 336 313 342 2 36 55 30
288 238 49 42 42 7 134 108 84 30 60 10 9 32 28 313 338 337 359 30 39 78 108 345 333 316 325 330 355 52 25 12 357 21 3 4 23 360 355 6 357 18 17 41 86
295 320 344 52 69 39 23 133 150 119 109 350 311 292 31 359 319 317 355 19 12 117 161 124 225 289 291 318 318 19 16 11 325 354 320 264 286 357 11 28 13 12 47 77 100
248 290 173 349 11 343 48 344 321 127 142 156 285 300 38 320 300 297 17 359 355 101 5 116 348 337 330 302 324 54 6 20 33 68 324 356 43 316 347 45 24 345 87 84 83
30 7 339 253 123 289 147 199 318 17 121 129 313 359 326 308 40 351 1 341 266 359 340 108 271 292 294 316 98 81 15 1 7 24 339 331 96 345 26 45 19 10 118 110 111
349 340 311 267 258 241 150 68 8 97 267 193 46 341 312 23 350 288 256 238 229 256 265 214 202 285 274 319 341 152 161 9 326 23 300 341 282 266 18 60 51 355 100 175 128